Regional Weather Roundup
Issued by NWS

Home | Current Version | Previous Version | Text Only | Print | Product List | Glossary On
Versions: 1 2 3 4 5 6 7 8 9 10 11 12 13 14 15 16 17 18 19 20 21 22 23 24 25 26 27 28 29 30 31 32 33 34 35 36 37 38 39 40 41 42 43 44 45 46 47 48 49 50
000
ASUS43 KDTX 040010
RWRMI
MICHIGAN HOURLY REGIONAL WEATHER ROUNDUP
NATIONAL WEATHER SERVICE DETROIT/PONTIAC MI
800 PM EDT TUE MAY 03 2016

NOTE: "FAIR" INDICATES FEW OR NO CLOUDS BELOW 12,000 FEET WITH NO
SIGNIFICANT WEATHER AND/OR OBSTRUCTION TO VISIBILITY.

MIZ047>049-052>055-059>063-066>070-074>076-081>083-040100-
SOUTHEAST LOWER MICHIGAN

CITY           SKY/WX    TMP DP  RH WIND       PRES   REMARKS
ADRIAN         CLOUDY    58  41  53 SW8       29.80F
6HR MIN TEMP:  58; 6HR MAX TEMP:  64;

ALMA           MOCLDY    61  33  34 SW13G18   29.74S
ANN ARBOR      CLOUDY    58  38  47 SW6       29.78F
BAD AXE        MOCLDY    61  35  38 SW8       29.72F
CARO           PTCLDY    60  36  40 SW8       29.72F
DETROIT CITY   PTCLDY    57  39  51 S12       29.79F
6HR MIN TEMP:  57; 6HR MAX TEMP:  63;

DETROIT        MOCLDY    57  44  62 SE13      29.79F
6HR MIN TEMP:  57; 6HR MAX TEMP:  63;

FLINT          PTCLDY    63  35  35 SW8       29.75F
6HR MIN TEMP:  63; 6HR MAX TEMP:  69;

GROSSE ILE     MOCLDY    54  48  82 SE8       29.78F
HILLSDALE      MOCLDY    60  30  31 SW6       29.79F
6HR MIN TEMP:  58; 6HR MAX TEMP:  62;

HOWELL         CLOUDY    60  37  41 SW5       29.76F
6HR MIN TEMP:  60; 6HR MAX TEMP:  65;


CITY           SKY/WX    TMP DP  RH WIND       PRES   REMARKS
JACKSON        MOCLDY    61  36  39 SW10      29.77F
6HR MIN TEMP:  60; 6HR MAX TEMP:  65;

LAMBERTVILLE   PTCLDY    62  40  44 SW7       29.80F
6HR MIN TEMP:  61; 6HR MAX TEMP:  66;

LANSING        CLEAR     61  32  33 W10       29.76F
6HR MIN TEMP:  61; 6HR MAX TEMP:  66;

LAPEER         FAIR      60  35  39 SW6       29.75F
6HR MIN TEMP:  60; 6HR MAX TEMP:  65;

MASON          PTCLDY    61  35  38 W5        29.76F
MONROE         CLEAR     58  47  67 S10G17    29.79S
6HR MIN TEMP:  56; 6HR MAX TEMP:  61;

MT. CLEMENS    PTCLDY    56  44  64 S15       29.77F
6HR MIN TEMP:  56; 6HR MAX TEMP:  61;

PONTIAC        MOCLDY    61  34  36 W7        29.76F
6HR MIN TEMP:  60; 6HR MAX TEMP:  65;

PORT HOPE        N/A     57  38  48 S6        29.70F
6HR MIN TEMP:  49; 6HR MAX TEMP:  61;

PORT HURON     CLEAR     57  43  58 S13G18    29.78S
TRI CITIES     CLOUDY    64  35  34 W12       29.72F
6HR MIN TEMP:  64; 6HR MAX TEMP:  69;

MIDLAND        FAIR      64  34  33 W12G17    29.71S
6HR MIN TEMP:  64; 6HR MAX TEMP:  69;

TROY           MOCLDY    59  41  51 S7        29.80S
SAGINAW HB     PTCLDY    63  34  34 SW13      29.72S
$$
MIZ043>046-050>051-056>058-064>065-071>073-077>080-040100-
SOUTHWEST LOWER MICHIGAN

CITY           SKY/WX    TMP DP  RH WIND       PRES   REMARKS
BATTLE CREEK   MOCLDY    59  33  37 W9        29.78F
6HR MIN TEMP:  59; 6HR MAX TEMP:  65;

BENTON HARBOR  CLOUDY    61  37  41 SW6       29.78F
6HR MIN TEMP:  60; 6HR MAX TEMP:  64;

BIG RAPIDS     CLOUDY    60  32  34 SW10G18   29.72S
6HR MIN TEMP:  60; 6HR MAX TEMP:  66;

COLDWATER      CLEAR     59  33  37 W9        29.79S
6HR MIN TEMP:  59; 6HR MAX TEMP:  65;

FREMONT        FAIR      57  34  42 S10       29.73F
HOLLAND          N/A     60  37  42 SW12      29.76F
6HR MIN TEMP:  60; 6HR MAX TEMP:  64;

GRAND RAPIDS   MOCLDY    62  36  37 SW10      29.76F
6HR MIN TEMP:  62; 6HR MAX TEMP:  66;

IONIA          FAIR      60  33  36 W10       29.75F
6HR MIN TEMP:  60; 6HR MAX TEMP:  66;

KALAMAZOO      CLOUDY    61  33  35 W10       29.78F
6HR MIN TEMP:  61; 6HR MAX TEMP:  66;

LUDINGTON      CLOUDY    56  38  50 S16G23    29.70F
6HR MIN TEMP:  56; 6HR MAX TEMP:  62;

MARSHALL       PTCLDY    60  36  39 W5        29.77F
6HR MIN TEMP:  60; 6HR MAX TEMP:  66;

MOUNT PLEASANT CLOUDY    62  35  37 SW10G20   29.72S
6HR MIN TEMP:  62; 6HR MAX TEMP:  69;

MUSKEGON       CLOUDY    56  35  45 S14       29.74F
6HR MIN TEMP:  56; 6HR MAX TEMP:  61;

SOUTH HAVEN    PTCLDY    62  34  35 SW7       29.77F
$$
MIZ016>042-040100-
NORTHERN LOWER MICHIGAN

CITY           SKY/WX    TMP DP  RH WIND       PRES   REMARKS
ALPENA         CLOUDY    60  39  45 CALM      29.65S
6HR MIN TEMP:  59; 6HR MAX TEMP:  68;

BEAVER ISLAND  RAIN      45  44  96 W3        29.70F
6HR MIN TEMP:  44; 6HR MAX TEMP:  61;

BELLAIRE       CLOUDY    56  38  50 NW5G22    29.70R
6HR MIN TEMP:  56; 6HR MAX TEMP:  69;

CADILLAC       CLOUDY    59  35  40 SW15      29.69S
CHARLEVOIX     CLOUDY    47  40  76 W9        29.73F
FRANKFORT      CLOUDY    52  41  65 W10       29.70S
GAYLORD        LGT RAIN  58  35  42 W17G25    29.69S
6HR MIN TEMP:  58; 6HR MAX TEMP:  66; 6HR PCP: TRACE;

GRAYLING       CLOUDY    61  32  33 SW12      29.69S
HARBOR SPRINGS CLOUDY    45  39  79 SW3       29.71S
HOUGHTON LAKE  CLOUDY    60  34  37 SW8       29.69F
6HR MIN TEMP:  60; 6HR MAX TEMP:  65;

MANISTEE       CLOUDY    59  36  41 S14G20    29.69F
OSCODA         PTCLDY    62  36  36 S12       29.67F
6HR MIN TEMP:  62; 6HR MAX TEMP:  66;

PELLSTON       LGT RAIN  51  41  68 NW9       29.70S
6HR MIN TEMP:  51; 6HR MAX TEMP:  67; 6HR PCP: TRACE;

ROGERS CITY    CLOUDY    62  32  32 SW10G20   29.67R
TRAVERSE CITY  CLOUDY    64  34  32 W9        29.67S
6HR MIN TEMP:  64; 6HR MAX TEMP:  70;

$$
MIZ007>008-015-040100-
EASTERN UPPER MICHIGAN

CITY           SKY/WX    TMP DP  RH WIND       PRES   REMARKS
KINROSS          N/A     50  46  87 SW7       29.67S
6HR MIN TEMP:  50; 6HR MAX TEMP:  61;

MACKINAC ISLAN LGT RAIN  46  40  81 W6        29.69S
6HR MIN TEMP:  45; 6HR MAX TEMP:  57;

NEWBERRY       CLOUDY    49  47  95 S5        29.66S
6HR MIN TEMP:  49; 6HR MAX TEMP:  57; 6HR PCP:  0.06;

S. S. MARIE    LGT RAIN  49  45  86 W3        29.66F
6HR MIN TEMP:  49; 6HR MAX TEMP:  62; 6HR PCP:  0.02;

MUNISING         N/A     48  42  80 NW12      29.65R
6HR MIN TEMP:  45; 6HR MAX TEMP:  67; 6HR PCP:  0.16;

$$
MIZ004>006-011>014-085-040100-
CENTRAL UPPER MICHIGAN

CITY           SKY/WX    TMP DP  RH WIND       PRES   REMARKS
MANISTIQUE     LGT RAIN  48  47  94 SW6       29.66F
6HR MIN TEMP:  45; 6HR MAX TEMP:  52; 6HR PCP:  0.26;

ESCANABA       CLOUDY    52  46  82 SW5       29.66S
6HR MIN TEMP:  52; 6HR MAX TEMP:  70; 6HR PCP:  0.17;

MENOMINEE      LGT RAIN  52  50  93 CALM      29.70S
SAWYER-GWINN   LGT RAIN  48  41  76 NW12G17   29.65F
$$
MIZ001>003-009>011-084-040100-
WESTERN UPPER MICHIGAN

CITY           SKY/WX    TMP DP  RH WIND       PRES   REMARKS
IRON MOUNTAIN  CLEAR     53  42  66 W9        29.66R
6HR MIN TEMP:  51; 6HR MAX TEMP:  67; 6HR PCP: TRACE;

HOUGHTON       PTSUNNY   49  41  74 NW8       29.68R
6HR MIN TEMP:  46; 6HR MAX TEMP:  57; 6HR PCP:  0.09;

COPPER HARBOR    N/A     48  41  76 N10       29.68R
6HR MIN TEMP:  44; 6HR MAX TEMP:  57; 6HR PCP:  0.01;

IRONWOOD         N/A     55  39  54 N5        29.67F
6HR MIN TEMP:  46; 6HR MAX TEMP:  57; 6HR PCP:  0.10;

$$

ABBREVIATIONS USED IN REMARKS
   TC - TEMPERATURE IN CELSIUS
  WCI - WIND CHILL INDEX
   HX - HEAT INDEX
  VSB - VISIBILITY





USA.gov is the U.S. government's official web portal to all federal, state and local government web resources and services.